Retour au catalogue

COSMOS 1360

ActifMilitaireLEO
NORAD 13163·PAYLOAD·🇷🇺 Russia

Lancé May 6, 1982 depuis Plesetsk Cosmodrome

Loading…

Prochains Passages (prochaines 24 heures)

TLE

FraisSource: Space-Track

Époque: Sep 14, 2026, 19:35 UTC

1 13163U 82040D   26257.81648493 -.00000001  00000-0  98121-4 0  9990
2 13163  74.0125 186.3556 0023569 287.4935  99.5828 12.50200657748987

Suivez COSMOS 1360 en temps réel avec AllMySat

Download on the App Store